AO-85
1 40967U 15058D 19031.49809727 .00000093 00000-0 27704-4 0 05841
2 40967 064.7732 218.0303 0211717 245.1941 112.7035 14.75862719087340
ATHENOXAT-1
1 41168U 15077C 19031.65760700 .00001741 00000-0 57486-4 0 9992
2 41168 14.9853 147.5090 0011473 333.4572 149.8162 15.13297675173032
ChubuSat-2
1 41338U 16012B 19031.15695699 .00000294 00000-0 16143-4 0 9997
2 41338 31.0035 305.1355 0013879 171.6311 188.4557 15.00087854162097
ChubuSat-3
1 41339U 16012C 19031.80816485 .00000280 00000-0 15018-4 0 9993
2 41339 31.0108 299.2738 0013539 185.0257 175.0254 15.00267962162184
Horyu-4
1 41340U 16012D 19031.07158348 .00000418 00000-0 25109-4 0 9996
2 41340 31.0051 296.6645 0014171 194.2501 165.7736 15.01159651162163
OUFTI-1
1 41458U 16025C 19031.81580644 .00001623 00000-0 86375-4 0 9991
2 41458 98.1126 111.6611 0169166 100.5172 261.5120 15.05375333151833
e-st@r-II
1 41459U 16025D 19031.80109014 .00000893 00000-0 49689-4 0 9994
2 41459 98.1128 111.3848 0170799 101.5015 260.5415 15.05048573151802
AAUSAT4
1 41460U 16025E 19031.80746364 .00001719 00000-0 90211-4 0 9996
2 41460 98.1077 112.3137 0160942 95.6023 266.3571 15.06754896151901
LO-87
1 41557U 16033B 19031.77798428 .00001191 00000-0 47836-4 0 9995
2 41557 97.4249 120.0921 0015481 68.1836 292.1048 15.26837359149048
NuSat2
1 41558U 16033C 19031.78738564 .00001230 00000-0 46648-4 0 9996
2 41558 97.4270 120.7070 0014569 70.4087 289.8724 15.28730691149064
Lapan A3
1 41603U 16040E 19031.77500322 .00000129 00000-0 91904-5 0 9995
2 41603 97.3816 93.7362 0013781 154.5685 345.4375 15.19660795144799
Swayam
1 41607U 16040J 19031.63328915 .00001283 00000-0 57629-4 0 9997
2 41607 97.3851 96.1511 0014451 150.9427 209.2617 15.22877496144860
Pratham
1 41783U 16059A 19030.82737675 .00000040 00000-0 16910-4 0 9997
2 41783 98.0883 93.3360 0034900 100.4523 260.0615 14.62969882125245
AlSat 1N
1 41789U 16059G 19031.68582967 .00000056 00000-0 19674-4 0 9997
2 41789 98.0899 95.8755 0029780 88.1208 272.3403 14.64212883125453
ScatSat
1 41790U 16059H 19031.17160544 .00000003 00000-0 11794-4 0 9993
2 41790 98.2302 79.4414 0019435 110.5027 249.8256 14.50888297124245
TY-1
1 41844U 16066D 19031.83202840 .00001259 00000-0 54967-4 0 9993
2 41844 97.4068 40.8560 0014329 318.9568 163.9467 15.23906899123698
Pegasus-1
1 41846U 16066F 19030.94926214 .00000163 00000-0 36286-4 0 9991
2 41846 098.7308 068.8080 0366759 290.7510 065.4742 14.37484532116625
CAS-2T
1 41847U 16066G 19031.76588043 .00000023 00000-0 14988-4 0 9997
2 41847 98.7257 70.1542 0364949 285.2158 70.8955 14.37954681117178
EO-88
1 42017U 17008BX 19030.81683897 .00001188 00000-0 50335-4 0 9991
2 42017 97.4214 99.2530 0004878 307.8016 52.2780 15.25097339108752
HAVELSAT
1 42700U 98067LH 19031.74954609 .00175357 23793-4 36474-3 0 9994
2 42700 51.6207 249.1121 0002270 197.8766 162.2164 15.98720783 98178
SOMP2
1 42701U 98067LJ 19031.74575916 .00095561 14614-4 28562-3 0 9994
2 42701 51.6302 254.5355 0001431 162.8920 197.2135 15.92336160 98099
PHOENIX
1 42706U 98067LP 19031.78632775 .00044085 00000-0 20483-3 0 9999
2 42706 51.6267 260.8745 0000516 181.7551 178.3450 15.82933046 97937
X-CubeSat
1 42707U 98067LQ 19032.01077651 .01274226 11815-4 69741-3 0 9996
2 42707 51.6141 242.3749 0006725 260.2020 99.8746 16.18850044 98189
qbee
1 42708U 98067LR 19031.78217439 .00189557 25956-4 38783-3 0 9994
2 42708 51.6211 250.1087 0003144 221.2117 138.8655 15.98981893 98026
ZA-AeroSat
1 42713U 98067LU 19031.27346198 .00039665 00000-0 20032-3 0 9990
2 42713 51.6336 268.7760 0000152 246.0164 114.0822 15.81185066 97443
SpaceCube
1 42717U 98067LY 19031.77723644 .00181112 24520-4 38776-3 0 9990
2 42717 51.6163 250.7086 0002581 202.4228 157.6668 15.98193635 97093
NJUST-1
1 42722U 98067MB 19031.82463514 .00032478 00000-0 18736-3 0 9996
2 42722 51.6391 270.1739 0002855 56.7210 352.9612 15.78349665 96540
LO-90
1 42725U 98067ME 19031.80239282 .00088858 00000-0 29103-3 0 9993
2 42725 51.6322 258.6080 0002430 138.9673 272.4518 15.89837390 96609
nSIGHT1
1 42726U 98067MF 19031.14733459 .00012595 00000-0 12581-3 0 9993
2 42726 51.6384 294.5149 0004670 19.6165 340.5010 15.66026814 96073
SNUSAT 1B
1 42727U 98067MG 19031.76893257 .00084783 00000-0 28858-3 0 9997
2 42727 51.6278 259.1430 0000747 340.4499 19.6478 15.89092820 96552
QBITO
1 42728U 98067MH 19031.81603756 .00304409 52351-4 46524-3 0 9997
2 42728 51.6241 248.9487 0003767 227.1823 132.8873 16.03856905 96532
Aalto-2
1 42729U 98067MJ 19031.78435913 .00691774 28218-3 57668-3 0 9991
2 42729 51.6163 246.2247 0006031 247.4805 112.5572 16.13176058 96573
SUSat
1 42730U 98067MK 19031.78462795 .00107664 15450-4 33739-3 0 9999
2 42730 51.6286 256.2912 0001510 176.2951 183.8066 15.91346195 96439
PolyITAN-2-SAU
1 42732U 98067MM 19031.82582937 .00941413 58894-3 63790-3 0 9993
2 42732 51.6196 245.0018 0006856 262.3649 97.6589 16.16147754 96635
Aoxiang-1
1 42735U 98067MQ 19031.83105233 .00034016 00000-0 18665-3 0 9993
2 42735 51.6308 268.6235 0003275 51.8534 359.1725 15.79437671 97694
BeEagleSat
1 42736U 98067MR 19031.77500565 .00053462 00000-0 22440-3 0 9996
2 42736 51.6289 262.2706 0002053 54.4888 305.6306 15.84993864 96462
CAS-4B
1 42759U 17034B 19031.76318080 .00000182 00000-0 24737-4 0 9997
2 42759 43.0191 268.2565 0009341 99.9903 295.3354 15.09475619 89990
CAS-4A
1 42761U 17034D 19031.89172454 .00000036 00000-0 15746-4 0 9995
2 42761 43.0191 267.1746 0009782 102.8629 74.1921 15.09551026 90004
UCLSat
1 42765U 17036A 19030.80046255 .00000975 00000-0 45155-4 0 9999
2 42765 097.3718 091.6572 0011629 006.5883 353.5504 15.22388980089929
NIUSat
1 42766U 17036B 19030.75332351 .00000761 00000-0 37529-4 0 9998
2 42766 97.3716 90.3702 0015441 353.7490 6.3550 15.20824844 89113
LituanicaSAT 2
1 42768U 17036D 19031.62820715 .00001662 00000-0 75153-4 0 9999
2 42768 97.3744 92.0248 0014880 351.5140 8.5843 15.22227815 89301
Aalto 1
1 42775U 17036L 19031.39506857 .00000686 00000-0 33875-4 0 9999
2 42775 97.3706 91.2927 0013759 352.3235 7.7788 15.21100361 89180
URSA MAIOR
1 42776U 17036M 19030.64348034 .00000680 00000-0 33507-4 0 9994
2 42776 97.3715 90.6628 0013605 355.1019 5.0082 15.21215126 89075
Max Valier Sat
1 42778U 17036P 19031.38655315 .00000761 00000-0 36593-4 0 9999
2 42778 97.3747 91.9737 0012181 357.7381 2.3798 15.21739857 89206
Pegasus
1 42784U 17036V 19030.93430102 .00000908 00000-0 42541-4 0 9994
2 42784 097.3721 091.6528 0012166 005.9779 354.1600 15.22163118089152
NUDATSat
1 42787U 17036Y 19031.20947849 .00001228 00000-0 55155-4 0 9990
2 42787 97.3755 92.3915 0013107 1.2365 358.8909 15.22965819 89067
SUCHAI 1
1 42788U 17036Z 19031.10781149 .00001117 00000-0 51115-4 0 9998
2 42788 97.3724 92.0347 0011697 5.1491 354.9864 15.22518325 89260
SKCUBE
1 42789U 17036AA 19030.58988156 .00000992 00000-0 45816-4 0 9998
2 42789 097.3722 091.4942 0011617 007.0869 353.0529 15.22442515089103
